| time (UTC) | temp F | wind direction | speed MPH | gust MPH | rain 1hr in | rain 24hr in | rain mn in | humidity % | barometer mb |
| 20260905145149 | 83 | 140 | 7.0 | 10.0 | 0.00 | 0.00 | 0.00 | 81 | 1015.7 |
| 20260905144647 | 82 | 161 | 6.0 | 9.0 | 0.00 | 0.00 | 0.00 | 82 | 1015.7 |
| 20260905144208 | 82 | 194 | 5.0 | 9.0 | 0.00 | 0.00 | 0.00 | 83 | 1015.6 |
| 20260905143704 | 82 | 173 | 6.0 | 13.0 | 0.00 | 0.00 | 0.00 | 84 | 1015.7 |
| 20260905143157 | 81 | 134 | 7.0 | 12.0 | 0.00 | 0.00 | 0.00 | 85 | 1015.7 |
| 20260905142716 | 81 | 165 | 5.0 | 9.0 | 0.00 | 0.00 | 0.00 | 86 | 1015.8 |
| 20260905142147 | 81 | 144 | 3.0 | 8.0 | 0.00 | 0.00 | 0.00 | 88 | 1015.6 |
| 20260905141623 | 80 | 111 | 3.0 | 7.0 | 0.00 | 0.00 | 0.00 | 88 | 1015.6 |
| 20260905141141 | 80 | 138 | 4.0 | 10.0 | 0.00 | 0.00 | 0.00 | 89 | 1015.6 |
| 20260905140653 | 80 | 143 | 4.0 | 10.0 | 0.00 | 0.00 | 0.00 | 90 | 1015.5 |
| 20260905140158 | 80 | 177 | 4.0 | 8.0 | 0.00 | 0.00 | 0.00 | 91 | 1015.4 |
| 20260905135139 | 79 | 146 | 4.0 | 6.0 | 0.00 | 0.00 | 0.00 | 93 | 1015.3 |
| 20260905134703 | 79 | 171 | 1.0 | 6.0 | 0.00 | 0.00 | 0.00 | 94 | 1015.3 |
| 20260905134211 | 79 | 163 | 2.0 | 6.0 | 0.00 | 0.00 | 0.00 | 95 | 1015.3 |
| 20260905133726 | 78 | 163 | 1.0 | 6.0 | 0.00 | 0.00 | 0.00 | 95 | 1015.2 |
| 20260905133226 | 78 | 115 | 2.0 | 5.0 | 0.00 | 0.00 | 0.00 | 95 | 1015.2 |
| 20260905132659 | 77 | 158 | 1.0 | 4.0 | 0.00 | 0.00 | 0.00 | 95 | 1015.1 |
| 20260905132154 | 77 | 146 | 0.0 | 0.0 | 0.00 | 0.00 | 0.00 | 95 | 1015.1 |
| 20260905131659 | 76 | 142 | 0.0 | 0.0 | 0.00 | 0.00 | 0.00 | 95 | 1015.1 |
| 20260905131210 | 76 | 110 | 0.0 | 0.0 | 0.00 | 0.00 | 0.00 | 95 | 1015.2 |
| 20260905130716 | 76 | 111 | 0.0 | 0.0 | 0.00 | 0.00 | 0.00 | 95 | 1015.0 |
| 20260905130209 | 75 | 111 | 0.0 | 0.0 | 0.00 | 0.00 | 0.00 | 94 | 1014.9 |
| 20260905125701 | 75 | 110 | 0.0 | 0.0 | 0.00 | 0.00 | 0.00 | 94 | 1014.9 |
| 20260905125158 | 75 | 110 | 0.0 | 0.0 | 0.00 | 0.00 | 0.00 | 94 | 1014.8 |
| 20260905124722 | 75 | 111 | 0.0 | 0.0 | 0.00 | 0.00 | 0.00 | 94 | 1014.7 |
| 20260905124133 | 76 | 111 | 0.0 | 0.0 | 0.00 | 0.00 | 0.00 | 94 | 1014.7 |
| 20260905123651 | 76 | 110 | 0.0 | 0.0 | 0.00 | 0.00 | 0.00 | 94 | 1014.6 |
| 20260905123150 | 76 | 110 | 0.0 | 0.0 | 0.00 | 0.00 | 0.00 | 94 | 1014.6 |
| 20260905122219 | 76 | 114 | 0.0 | 2.0 | 0.00 | 0.00 | 0.00 | 94 | 1014.6 |
| 20260905121717 | 76 | 115 | 1.0 | 2.0 | 0.00 | 0.00 | 0.00 | 94 | 1014.5 |
| 20260905121213 | 75 | 104 | 0.0 | 0.0 | 0.00 | 0.00 | 0.00 | 94 | 1014.5 |
| 20260905120712 | 75 | 128 | 0.0 | 0.0 | 0.00 | 0.00 | 0.00 | 93 | 1014.4 |
| 20260905120208 | 75 | 128 | 0.0 | 0.0 | 0.00 | 0.00 | 0.00 | 93 | 1014.5 |
| 20260905115705 | 75 | 128 | 0.0 | 0.0 | 0.00 | 0.00 | 0.00 | 93 | 1014.5 |
| 20260905115204 | 75 | 128 | 0.0 | 0.0 | 0.00 | 0.00 | 0.00 | 93 | 1014.6 |
| 20260905114657 | 76 | 128 | 0.0 | 0.0 | 0.00 | 0.00 | 0.00 | 93 | 1014.6 |
| 20260905114206 | 76 | 128 | 0.0 | 0.0 | 0.00 | 0.00 | 0.00 | 93 | 1014.5 |
| 20260905113626 | 76 | 128 | 0.0 | 0.0 | 0.00 | 0.00 | 0.00 | 93 | 1014.5 |
| 20260905113224 | 76 | 128 | 0.0 | 0.0 | 0.00 | 0.00 | 0.00 | 93 | 1014.6 |
| 20260905112720 | 76 | 128 | 0.0 | 0.0 | 0.00 | 0.00 | 0.00 | 93 | 1014.4 |
| 20260905112222 | 76 | 128 | 0.0 | 0.0 | 0.00 | 0.00 | 0.00 | 92 | 1014.4 |
| 20260905111715 | 76 | 128 | 0.0 | 0.0 | 0.00 | 0.00 | 0.00 | 92 | 1014.5 |
| 20260905111207 | 76 | 128 | 0.0 | 0.0 | 0.00 | 0.00 | 0.00 | 92 | 1014.5 |
| 20260905110721 | 76 | 128 | 0.0 | 0.0 | 0.00 | 0.00 | 0.00 | 92 | 1014.4 |
| 20260905110142 | 76 | 128 | 0.0 | 0.0 | 0.00 | 0.00 | 0.00 | 92 | 1014.5 |
| 20260905105636 | 76 | 128 | 0.0 | 0.0 | 0.00 | 0.00 | 0.00 | 93 | 1014.5 |
| 20260905105134 | 76 | 128 | 0.0 | 0.0 | 0.00 | 0.00 | 0.00 | 93 | 1014.4 |
| 20260905104659 | 76 | 128 | 0.0 | 0.0 | 0.00 | 0.00 | 0.00 | 92 | 1014.3 |
| 20260905104209 | 77 | 128 | 0.0 | 0.0 | 0.00 | 0.00 | 0.00 | 92 | 1014.4 |
| 20260905103719 | 77 | 128 | 0.0 | 0.0 | 0.00 | 0.00 | 0.00 | 92 | 1014.3 |
| 20260905103127 | 77 | 128 | 0.0 | 0.0 | 0.00 | 0.00 | 0.00 | 92 | 1014.2 |
| 20260905102641 | 77 | 128 | 0.0 | 0.0 | 0.00 | 0.00 | 0.00 | 91 | 1014.3 |
| 20260905102203 | 77 | 128 | 0.0 | 0.0 | 0.00 | 0.00 | 0.00 | 91 | 1014.3 |
| 20260905101719 | 77 | 128 | 0.0 | 0.0 | 0.00 | 0.00 | 0.00 | 91 | 1014.3 |
| 20260905101239 | 77 | 128 | 0.0 | 0.0 | 0.00 | 0.00 | 0.00 | 91 | 1014.3 |
| 20260905100629 | 77 | 128 | 0.0 | 2.0 | 0.00 | 0.00 | 0.00 | 91 | 1014.2 |
| 20260905100144 | 77 | 128 | 1.0 | 2.0 | 0.00 | 0.00 | 0.00 | 91 | 1014.2 |
| 20260905095134 | 78 | 128 | 0.0 | 2.0 | 0.00 | 0.00 | 0.00 | 91 | 1014.2 |
| 20260905094650 | 78 | 128 | 0.0 | 5.0 | 0.00 | 0.00 | 0.00 | 91 | 1014.2 |
| 20260905094214 | 78 | 128 | 1.0 | 5.0 | 0.00 | 0.00 | 0.00 | 91 | 1014.2 |
| 20260905093238 | 78 | 132 | 1.0 | 4.0 | 0.00 | 0.00 | 0.00 | 91 | 1014.1 |
| 20260905092635 | 78 | 132 | 0.0 | 4.0 | 0.00 | 0.00 | 0.00 | 91 | 1014.2 |
| 20260905092152 | 78 | 132 | 1.0 | 3.0 | 0.00 | 0.00 | 0.00 | 90 | 1014.2 |
| 20260905091705 | 78 | 132 | 1.0 | 5.0 | 0.00 | 0.00 | 0.00 | 90 | 1014.1 |
| 20260905091210 | 78 | 132 | 3.0 | 5.0 | 0.00 | 0.00 | 0.00 | 90 | 1014.1 |
| 20260905090724 | 78 | 133 | 2.0 | 3.0 | 0.00 | 0.00 | 0.00 | 90 | 1014.3 |
| 20260905090219 | 78 | 134 | 1.0 | 2.0 | 0.00 | 0.00 | 0.00 | 90 | 1014.3 |
| 20260905085642 | 78 | 133 | 1.0 | 2.0 | 0.00 | 0.00 | 0.00 | 89 | 1014.2 |
| 20260905085158 | 78 | 133 | 0.0 | 5.0 | 0.00 | 0.00 | 0.00 | 89 | 1014.2 |
| 20260905084655 | 79 | 133 | 1.0 | 5.0 | 0.00 | 0.00 | 0.00 | 89 | 1014.3 |
| 20260905084216 | 79 | 121 | 1.0 | 5.0 | 0.00 | 0.00 | 0.00 | 89 | 1014.1 |
| 20260905083216 | 79 | 130 | 2.0 | 5.0 | 0.00 | 0.00 | 0.00 | 89 | 1014.2 |
| 20260905082627 | 79 | 130 | 3.0 | 8.0 | 0.00 | 0.00 | 0.00 | 89 | 1014.4 |
| 20260905082154 | 79 | 146 | 3.0 | 5.0 | 0.00 | 0.00 | 0.00 | 88 | 1014.5 |
| 20260905081711 | 79 | 150 | 2.0 | 5.0 | 0.00 | 0.00 | 0.00 | 88 | 1014.5 |
| 20260905081207 | 79 | 150 | 3.0 | 8.0 | 0.00 | 0.00 | 0.00 | 88 | 1014.4 |
| 20260905080731 | 79 | 143 | 3.0 | 8.0 | 0.00 | 0.00 | 0.00 | 88 | 1014.4 |
| 20260905080205 | 79 | 167 | 5.0 | 8.0 | 0.00 | 0.00 | 0.00 | 87 | 1014.5 |
| 20260905075700 | 79 | 158 | 4.0 | 9.0 | 0.00 | 0.00 | 0.00 | 87 | 1014.5 |
| 20260905075154 | 79 | 168 | 3.0 | 7.0 | 0.00 | 0.00 | 0.00 | 87 | 1014.5 |
| 20260905074651 | 79 | 132 | 3.0 | 9.0 | 0.00 | 0.00 | 0.00 | 86 | 1014.5 |
| 20260905073732 | 79 | 127 | 4.0 | 8.0 | 0.00 | 0.00 | 0.00 | 86 | 1014.6 |
| 20260905073203 | 79 | 141 | 4.0 | 8.0 | 0.00 | 0.00 | 0.00 | 86 | 1014.7 |
| 20260905072700 | 79 | 137 | 3.0 | 7.0 | 0.00 | 0.00 | 0.00 | 85 | 1014.7 |
| 20260905072157 | 79 | 119 | 5.0 | 9.0 | 0.00 | 0.00 | 0.00 | 85 | 1014.8 |
| 20260905071646 | 79 | 103 | 5.0 | 9.0 | 0.00 | 0.00 | 0.00 | 85 | 1014.8 |
| 20260905071143 | 80 | 165 | 4.0 | 9.0 | 0.00 | 0.00 | 0.00 | 84 | 1014.7 |
| 20260905070713 | 80 | 148 | 3.0 | 9.0 | 0.00 | 0.00 | 0.00 | 84 | 1014.8 |
| 20260905070135 | 79 | 196 | 4.0 | 9.0 | 0.00 | 0.00 | 0.00 | 84 | 1014.9 |
| 20260905065624 | 80 | 148 | 2.0 | 10.0 | 0.00 | 0.00 | 0.00 | 84 | 1014.8 |
| 20260905065146 | 79 | 131 | 6.0 | 10.0 | 0.00 | 0.00 | 0.00 | 84 | 1014.8 |
| 20260905064625 | 79 | 134 | 6.0 | 10.0 | 0.00 | 0.00 | 0.00 | 83 | 1014.8 |
| 20260905064128 | 80 | 131 | 4.0 | 7.0 | 0.00 | 0.00 | 0.00 | 83 | 1014.8 |
| 20260905063636 | 80 | 117 | 4.0 | 7.0 | 0.00 | 0.00 | 0.00 | 82 | 1014.9 |
| 20260905063142 | 80 | 159 | 3.0 | 5.0 | 0.00 | 0.00 | 0.00 | 82 | 1014.9 |
| 20260905062641 | 80 | 165 | 3.0 | 5.0 | 0.00 | 0.00 | 0.00 | 82 | 1015.0 |
| 20260905062129 | 80 | 153 | 3.0 | 7.0 | 0.00 | 0.00 | 0.00 | 82 | 1015.0 |
| 20260905061636 | 80 | 132 | 5.0 | 7.0 | 0.00 | 0.00 | 0.00 | 81 | 1015.0 |
| 20260905061133 | 80 | 142 | 4.0 | 6.0 | 0.00 | 0.00 | 0.00 | 81 | 1014.9 |
| 20260905060642 | 80 | 167 | 2.0 | 7.0 | 0.00 | 0.00 | 0.00 | 80 | 1015.0 |
| 20260905060128 | 80 | 166 | 3.0 | 7.0 | 0.00 | 0.00 | 0.00 | 80 | 1015.0 |
| 20260905055656 | 80 | 149 | 4.0 | 7.0 | 0.00 | 0.00 | 0.00 | 79 | 1014.9 |
| 20260905055140 | 80 | 149 | 4.0 | 7.0 | 0.00 | 0.00 | 0.00 | 79 | 1014.9 |
| 20260905054650 | 80 | 156 | 4.0 | 8.0 | 0.00 | 0.00 | 0.00 | 78 | 1014.9 |
| 20260905054123 | 81 | 121 | 5.0 | 9.0 | 0.00 | 0.00 | 0.00 | 78 | 1014.8 |
| 20260905053627 | 81 | 126 | 6.0 | 9.0 | 0.00 | 0.00 | 0.00 | 77 | 1014.8 |
| 20260905053124 | 81 | 136 | 5.0 | 11.0 | 0.00 | 0.00 | 0.00 | 76 | 1014.9 |
| 20260905052631 | 81 | 153 | 6.0 | 11.0 | 0.00 | 0.00 | 0.00 | 76 | 1015.0 |
| 20260905052138 | 81 | 133 | 6.0 | 8.0 | 0.00 | 0.00 | 0.00 | 75 | 1015.0 |
| 20260905051647 | 81 | 140 | 4.0 | 9.0 | 0.00 | 0.00 | 0.00 | 75 | 1014.9 |
| 20260905051133 | 81 | 147 | 3.0 | 9.0 | 0.00 | 0.00 | 0.00 | 75 | 1014.8 |
| 20260905050643 | 81 | 117 | 5.0 | 10.0 | 0.00 | 0.00 | 0.00 | 74 | 1014.8 |
| 20260905050141 | 81 | 127 | 7.0 | 10.0 | 0.00 | 0.00 | 0.00 | 74 | 1014.8 |
| 20260905045650 | 81 | 107 | 3.0 | 8.0 | 0.00 | 0.00 | 0.00 | 74 | 1014.9 |
| 20260905045134 | 81 | 123 | 4.0 | 8.0 | 0.00 | 0.00 | 0.00 | 74 | 1014.9 |
| 20260905044648 | 81 | 116 | 4.0 | 10.0 | 0.00 | 0.00 | 0.00 | 74 | 1015.0 |
| 20260905043636 | 81 | 111 | 4.0 | 6.0 | 0.00 | 0.00 | 0.00 | 73 | 1015.0 |
| 20260905043151 | 82 | 115 | 4.0 | 8.0 | 0.00 | 0.00 | 0.00 | 73 | 1015.0 |
| 20260905042652 | 82 | 113 | 2.0 | 9.0 | 0.00 | 0.00 | 0.00 | 73 | 1015.0 |
| 20260905042156 | 82 | 146 | 5.0 | 9.0 | 0.00 | 0.00 | 0.00 | 72 | 1015.1 |
| 20260905041220 | 82 | 123 | 4.0 | 8.0 | 0.00 | 0.00 | 0.00 | 72 | 1014.9 |
| 20260905040713 | 82 | 120 | 3.0 | 7.0 | 0.00 | 0.00 | 0.00 | 71 | 1014.8 |
| 20260905040209 | 82 | 76 | 4.0 | 8.0 | 0.00 | 0.00 | 0.00 | 71 | 1014.9 |
| 20260905035704 | 82 | 109 | 5.0 | 8.0 | 0.00 | 0.00 | 0.00 | 71 | 1014.8 |
| 20260905035125 | 82 | 116 | 4.0 | 8.0 | 0.00 | 0.00 | 0.00 | 70 | 1014.8 |
| 20260905034641 | 83 | 117 | 3.0 | 8.0 | 0.00 | 0.00 | 0.00 | 70 | 1014.8 |
| 20260905033719 | 83 | 131 | 6.0 | 8.0 | 0.00 | 0.00 | 0.00 | 69 | 1014.7 |
| 20260905033152 | 83 | 153 | 4.0 | 7.0 | 0.00 | 0.00 | 0.00 | 69 | 1014.6 |
| 20260905032647 | 83 | 124 | 3.0 | 7.0 | 0.00 | 0.00 | 0.00 | 69 | 1014.7 |
| 20260905032127 | 83 | 106 | 4.0 | 7.0 | 0.00 | 0.00 | 0.00 | 69 | 1014.5 |
| 20260905031626 | 83 | 121 | 4.0 | 7.0 | 0.00 | 0.00 | 0.00 | 68 | 1014.4 |
| 20260905031148 | 83 | 91 | 3.0 | 9.0 | 0.00 | 0.00 | 0.00 | 68 | 1014.5 |
| 20260905030741 | 83 | 126 | 5.0 | 10.0 | 0.00 | 0.00 | 0.00 | 68 | 1014.4 |
| 20260905030130 | 83 | 113 | 7.0 | 10.0 | 0.00 | 0.00 | 0.00 | 68 | 1014.4 |
| 20260905025655 | 83 | 64 | 3.0 | 8.0 | 0.00 | 0.00 | 0.00 | 68 | 1014.4 |
| 20260905024631 | 83 | 92 | 3.0 | 7.0 | 0.00 | 0.00 | 0.00 | 68 | 1014.3 |
| 20260905024156 | 83 | 107 | 3.0 | 7.0 | 0.00 | 0.00 | 0.00 | 67 | 1014.2 |
| 20260905023653 | 84 | 105 | 3.0 | 7.0 | 0.00 | 0.00 | 0.00 | 67 | 1014.0 |
| 20260905022643 | 84 | 65 | 4.0 | 9.0 | 0.00 | 0.00 | 0.00 | 66 | 1013.9 |
| 20260905022156 | 84 | 68 | 5.0 | 9.0 | 0.00 | 0.00 | 0.00 | 66 | 1013.9 |
| 20260905021701 | 84 | 71 | 5.0 | 8.0 | 0.00 | 0.00 | 0.00 | 66 | 1013.8 |
| 20260905021212 | 84 | 76 | 4.0 | 8.0 | 0.00 | 0.00 | 0.00 | 65 | 1013.7 |
| 20260905020625 | 84 | 76 | 5.0 | 8.0 | 0.00 | 0.00 | 0.00 | 65 | 1013.7 |
| 20260905020146 | 84 | 79 | 5.0 | 8.0 | 0.00 | 0.00 | 0.00 | 65 | 1013.8 |
| 20260905015655 | 85 | 71 | 3.0 | 11.0 | 0.00 | 0.00 | 0.00 | 65 | 1013.7 |
| 20260905015158 | 85 | 71 | 6.0 | 11.0 | 0.00 | 0.00 | 0.00 | 64 | 1013.7 |
| 20260905014716 | 85 | 88 | 6.0 | 10.0 | 0.00 | 0.00 | 0.00 | 64 | 1013.7 |
| 20260905014203 | 85 | 92 | 6.0 | 11.0 | 0.00 | 0.00 | 0.00 | 64 | 1013.7 |
| 20260905013727 | 85 | 57 | 7.0 | 11.0 | 0.00 | 0.00 | 0.00 | 63 | 1013.6 |
| 20260905013211 | 85 | 59 | 6.0 | 10.0 | 0.00 | 0.00 | 0.00 | 63 | 1013.6 |
| 20260905012128 | 86 | 76 | 5.0 | 10.0 | 0.00 | 0.00 | 0.00 | 62 | 1013.5 |
| 20260905011640 | 86 | 61 | 5.0 | 10.0 | 0.00 | 0.00 | 0.00 | 61 | 1013.4 |
| 20260905011157 | 86 | 55 | 6.0 | 14.0 | 0.00 | 0.00 | 0.00 | 61 | 1013.3 |
| 20260905010152 | 87 | 88 | 3.0 | 6.0 | 0.00 | 0.00 | 0.00 | 58 | 1013.1 |
| 20260905005221 | 87 | 101 | 2.0 | 6.0 | 0.00 | 0.00 | 0.00 | 58 | 1013.2 |
| 20260905004637 | 88 | 109 | 2.0 | 6.0 | 0.00 | 0.00 | 0.00 | 58 | 1013.2 |
| 20260905004241 | 88 | 110 | 4.0 | 9.0 | 0.00 | 0.00 | 0.00 | 58 | 1013.2 |
| 20260905003718 | 88 | 98 | 3.0 | 9.0 | 0.00 | 0.00 | 0.00 | 57 | 1013.1 |
| 20260905003128 | 89 | 126 | 2.0 | 5.0 | 0.00 | 0.00 | 0.00 | 57 | 1013.1 |
| 20260905002652 | 89 | 127 | 3.0 | 6.0 | 0.00 | 0.00 | 0.00 | 56 | 1013.1 |
| 20260905001634 | 89 | 117 | 6.0 | 9.0 | 0.00 | 0.00 | 0.00 | 55 | 1012.9 |
| 20260905001220 | 89 | 116 | 3.0 | 8.0 | 0.00 | 0.00 | 0.00 | 55 | 1012.8 |
| 20260905000714 | 90 | 124 | 6.0 | 11.0 | 0.00 | 0.00 | 0.00 | 54 | 1012.7 |
| 20260904235641 | 90 | 90 | 5.0 | 9.0 | 0.00 | 0.00 | 0.00 | 54 | 1012.6 |
| 20260904235158 | 91 | 109 | 3.0 | 10.0 | 0.00 | 0.00 | 0.00 | 55 | 1012.6 |
| 20260904234653 | 91 | 139 | 5.0 | 10.0 | 0.00 | 0.00 | 0.00 | 54 | 1012.6 |
| 20260904234148 | 91 | 146 | 5.0 | 9.0 | 0.00 | 0.00 | 0.00 | 52 | 1012.6 |
| 20260904233703 | 91 | 181 | 5.0 | 9.0 | 0.00 | 0.00 | 0.00 | 51 | 1012.5 |
| 20260904233157 | 91 | 185 | 3.0 | 9.0 | 0.00 | 0.00 | 0.00 | 51 | 1012.5 |
| 20260904232715 | 91 | 105 | 4.0 | 8.0 | 0.00 | 0.00 | 0.00 | 51 | 1012.6 |
| 20260904232205 | 91 | 46 | 5.0 | 10.0 | 0.00 | 0.00 | 0.00 | 51 | 1012.6 |
| 20260904231722 | 91 | 106 | 4.0 | 10.0 | 0.00 | 0.00 | 0.00 | 51 | 1012.7 |
| 20260904231149 | 91 | 129 | 3.0 | 14.0 | 0.00 | 0.00 | 0.00 | 49 | 1012.6 |
| 20260904230700 | 91 | 119 | 6.0 | 14.0 | 0.00 | 0.00 | 0.00 | 48 | 1012.6 |
| 20260904230222 | 91 | 94 | 6.0 | 13.0 | 0.00 | 0.00 | 0.00 | 48 | 1012.7 |
| 20260904225741 | 91 | 59 | 5.0 | 13.0 | 0.00 | 0.00 | 0.00 | 49 | 1012.6 |
| 20260904225216 | 91 | 96 | 7.0 | 13.0 | 0.00 | 0.00 | 0.00 | 48 | 1012.6 |
| 20260904224740 | 91 | 124 | 3.0 | 12.0 | 0.00 | 0.00 | 0.00 | 51 | 1012.6 |
| 20260904224130 | 91 | 140 | 9.0 | 12.0 | 0.00 | 0.00 | 0.00 | 50 | 1012.8 |
| 20260904223645 | 91 | 153 | 6.0 | 12.0 | 0.00 | 0.00 | 0.00 | 50 | 1013.0 |
| 20260904222638 | 91 | 119 | 7.0 | 14.0 | 0.00 | 0.00 | 0.00 | 52 | 1013.1 |
| 20260904222154 | 91 | 176 | 5.0 | 10.0 | 0.00 | 0.00 | 0.00 | 55 | 1013.0 |
| 20260904221717 | 91 | 123 | 6.0 | 10.0 | 0.00 | 0.00 | 0.00 | 54 | 1013.1 |
| 20260904221202 | 91 | 106 | 4.0 | 11.0 | 0.00 | 0.00 | 0.00 | 57 | 1013.0 |
| 20260904220712 | 90 | 180 | 5.0 | 11.0 | 0.00 | 0.00 | 0.00 | 58 | 1013.0 |
| 20260904220125 | 90 | 150 | 7.0 | 9.0 | 0.00 | 0.00 | 0.00 | 59 | 1013.0 |
| 20260904215645 | 89 | 142 | 3.0 | 11.0 | 0.00 | 0.00 | 0.00 | 61 | 1013.1 |
| 20260904215209 | 89 | 147 | 6.0 | 11.0 | 0.00 | 0.00 | 0.00 | 59 | 1013.2 |
| 20260904214722 | 89 | 127 | 5.0 | 11.0 | 0.00 | 0.00 | 0.00 | 60 | 1013.3 |
| 20260904214131 | 89 | 105 | 5.0 | 9.0 | 0.00 | 0.00 | 0.00 | 61 | 1013.4 |
| 20260904213654 | 88 | 173 | 6.0 | 9.0 | 0.00 | 0.00 | 0.00 | 61 | 1013.4 |
| 20260904212740 | 88 | 59 | 5.0 | 8.0 | 0.00 | 0.00 | 0.00 | 63 | 1013.5 |
| 20260904212144 | 88 | 155 | 4.0 | 9.0 | 0.00 | 0.00 | 0.00 | 63 | 1013.7 |
| 20260904211709 | 88 | 132 | 4.0 | 9.0 | 0.00 | 0.00 | 0.00 | 62 | 1013.8 |
| 20260904211212 | 88 | 139 | 7.0 | 9.0 | 0.00 | 0.00 | 0.00 | 62 | 1013.9 |
| 20260904210704 | 88 | 155 | 5.0 | 9.0 | 0.00 | 0.00 | 0.00 | 62 | 1013.9 |
| 20260904210216 | 88 | 132 | 4.0 | 12.0 | 0.00 | 0.00 | 0.00 | 61 | 1014.0 |
| 20260904205700 | 88 | 108 | 6.0 | 12.0 | 0.00 | 0.00 | 0.00 | 60 | 1014.0 |
| 20260904205152 | 87 | 97 | 4.0 | 9.0 | 0.00 | 0.00 | 0.00 | 63 | 1014.0 |
| 20260904204651 | 87 | 175 | 3.0 | 9.0 | 0.00 | 0.00 | 0.00 | 64 | 1014.1 |
| 20260904203643 | 87 | 132 | 6.0 | 8.0 | 0.00 | 0.00 | 0.00 | 64 | 1014.2 |
| 20260904203221 | 87 | 169 | 5.0 | 8.0 | 0.00 | 0.00 | 0.00 | 65 | 1014.2 |
| 20260904202718 | 87 | 169 | 5.0 | 10.0 | 0.00 | 0.00 | 0.00 | 65 | 1014.2 |
| 20260904202153 | 87 | 143 | 6.0 | 10.0 | 0.00 | 0.00 | 0.00 | 66 | 1014.2 |
| 20260904201628 | 87 | 169 | 6.0 | 10.0 | 0.00 | 0.00 | 0.00 | 66 | 1014.2 |
| 20260904201147 | 88 | 88 | 3.0 | 6.0 | 0.00 | 0.00 | 0.00 | 66 | 1014.2 |
| 20260904200702 | 88 | 140 | 3.0 | 8.0 | 0.00 | 0.00 | 0.00 | 66 | 1014.4 |
| 20260904200157 | 87 | 162 | 4.0 | 10.0 | 0.00 | 0.00 | 0.00 | 66 | 1014.4 |
| 20260904195703 | 87 | 141 | 7.0 | 11.0 | 0.00 | 0.00 | 0.00 | 65 | 1014.3 |
| 20260904195217 | 87 | 96 | 8.0 | 11.0 | 0.00 | 0.00 | 0.00 | 66 | 1014.4 |
| 20260904194221 | 87 | 84 | 5.0 | 8.0 | 0.00 | 0.00 | 0.00 | 66 | 1014.4 |
| 20260904193649 | 87 | 105 | 4.0 | 9.0 | 0.00 | 0.00 | 0.00 | 67 | 1014.5 |
| 20260904193202 | 87 | 205 | 2.0 | 9.0 | 0.00 | 0.00 | 0.00 | 67 | 1014.6 |
| 20260904192700 | 87 | 226 | 4.0 | 9.0 | 0.00 | 0.00 | 0.00 | 67 | 1014.5 |
| 20260904191645 | 87 | 207 | 5.0 | 8.0 | 0.00 | 0.00 | 0.00 | 67 | 1014.7 |
| 20260904191143 | 87 | 177 | 1.0 | 8.0 | 0.00 | 0.00 | 0.00 | 66 | 1014.8 |
| 20260904190704 | 87 | 177 | 4.0 | 11.0 | 0.00 | 0.00 | 0.00 | 67 | 1014.8 |
| 20260904190221 | 87 | 140 | 7.0 | 11.0 | 0.00 | 0.00 | 0.00 | 69 | 1014.9 |
| 20260904185630 | 87 | 180 | 3.0 | 10.0 | 0.00 | 0.00 | 0.00 | 70 | 1015.0 |
| 20260904185156 | 86 | 108 | 5.0 | 11.0 | 0.00 | 0.00 | 0.00 | 69 | 1015.2 |
| 20260904184636 | 87 | 131 | 5.0 | 10.0 | 0.00 | 0.00 | 0.00 | 70 | 1015.1 |
| 20260904184206 | 87 | 135 | 5.0 | 10.0 | 0.00 | 0.00 | 0.00 | 70 | 1015.1 |
| 20260904183718 | 86 | 149 | 4.0 | 9.0 | 0.00 | 0.00 | 0.00 | 70 | 1015.2 |
| 20260904183239 | 86 | 92 | 3.0 | 9.0 | 0.00 | 0.00 | 0.00 | 71 | 1015.2 |
| 20260904182628 | 86 | 92 | 3.0 | 10.0 | 0.00 | 0.00 | 0.00 | 72 | 1015.3 |
| 20260904182145 | 85 | 128 | 7.0 | 11.0 | 0.00 | 0.00 | 0.00 | 71 | 1015.3 |
| 20260904181707 | 85 | 148 | 6.0 | 11.0 | 0.00 | 0.00 | 0.00 | 71 | 1015.3 |
| 20260904181214 | 86 | 134 | 5.0 | 9.0 | 0.00 | 0.00 | 0.00 | 71 | 1015.4 |
| 20260904180141 | 86 | 166 | 4.0 | 9.0 | 0.00 | 0.00 | 0.00 | 70 | 1015.4 |
| 20260904175656 | 86 | 131 | 1.0 | 8.0 | 0.00 | 0.00 | 0.00 | 72 | 1015.4 |
| 20260904175218 | 85 | 162 | 4.0 | 9.0 | 0.00 | 0.00 | 0.00 | 72 | 1015.4 |
| 20260904174630 | 85 | 115 | 6.0 | 9.0 | 0.00 | 0.00 | 0.00 | 72 | 1015.5 |
| 20260904174230 | 85 | 159 | 3.0 | 11.0 | 0.00 | 0.00 | 0.00 | 73 | 1015.5 |
| 20260904173701 | 85 | 149 | 6.0 | 11.0 | 0.00 | 0.00 | 0.00 | 73 | 1015.6 |
| 20260904173154 | 85 | 133 | 6.0 | 9.0 | 0.00 | 0.00 | 0.00 | 72 | 1015.8 |
| 20260904172649 | 85 | 172 | 4.0 | 11.0 | 0.00 | 0.00 | 0.00 | 72 | 1015.8 |
| 20260904172151 | 85 | 139 | 6.0 | 11.0 | 0.00 | 0.00 | 0.00 | 72 | 1015.7 |
| 20260904171644 | 85 | 165 | 6.0 | 10.0 | 0.00 | 0.00 | 0.00 | 72 | 1015.8 |
| 20260904171152 | 85 | 163 | 4.0 | 9.0 | 0.00 | 0.00 | 0.00 | 72 | 1015.8 |
| 20260904170658 | 84 | 163 | 4.0 | 10.0 | 0.00 | 0.00 | 0.00 | 73 | 1015.9 |
| 20260904170217 | 84 | 165 | 4.0 | 10.0 | 0.00 | 0.00 | 0.00 | 74 | 1015.8 |
| 20260904165624 | 84 | 148 | 6.0 | 11.0 | 0.00 | 0.00 | 0.00 | 73 | 1015.9 |
| 20260904165134 | 84 | 147 | 4.0 | 9.0 | 0.00 | 0.00 | 0.00 | 73 | 1015.9 |
| 20260904164654 | 84 | 184 | 3.0 | 7.0 | 0.00 | 0.00 | 0.00 | 74 | 1015.9 |
| 20260904164206 | 84 | 173 | 4.0 | 7.0 | 0.00 | 0.00 | 0.00 | 75 | 1015.9 |
| 20260904163709 | 84 | 148 | 2.0 | 7.0 | 0.00 | 0.00 | 0.00 | 77 | 1015.9 |
| 20260904163203 | 84 | 152 | 0.0 | 5.0 | 0.00 | 0.00 | 0.00 | 77 | 1015.9 |
| 20260904162715 | 84 | 151 | 0.0 | 7.0 | 0.00 | 0.00 | 0.00 | 76 | 1016.0 |
| 20260904162137 | 84 | 125 | 3.0 | 8.0 | 0.00 | 0.00 | 0.00 | 78 | 1016.2 |
| 20260904161649 | 83 | 119 | 1.0 | 7.0 | 0.00 | 0.00 | 0.00 | 78 | 1016.3 |
| 20260904161140 | 83 | 134 | 3.0 | 7.0 | 0.00 | 0.00 | 0.00 | 79 | 1016.2 |
| 20260904160140 | 82 | 161 | 5.0 | 9.0 | 0.00 | 0.00 | 0.00 | 81 | 1016.2 |
| 20260904155710 | 82 | 115 | 4.0 | 7.0 | 0.00 | 0.00 | 0.00 | 81 | 1016.2 |
| 20260904155215 | 82 | 116 | 3.0 | 8.0 | 0.00 | 0.00 | 0.00 | 82 | 1016.1 |
| 20260904154146 | 82 | 153 | 3.0 | 8.0 | 0.00 | 0.00 | 0.00 | 83 | 1016.0 |
| 20260904153703 | 81 | 137 | 4.0 | 8.0 | 0.00 | 0.00 | 0.00 | 83 | 1016.1 |
| 20260904153207 | 81 | 121 | 2.0 | 7.0 | 0.00 | 0.00 | 0.00 | 84 | 1015.9 |
| 20260904152721 | 81 | 149 | 4.0 | 7.0 | 0.00 | 0.00 | 0.00 | 85 | 1015.9 |
| 20260904152127 | 81 | 164 | 5.0 | 9.0 | 0.00 | 0.00 | 0.00 | 85 | 1015.8 |
| 20260904151650 | 80 | 194 | 2.0 | 10.0 | 0.00 | 0.00 | 0.00 | 86 | 1015.8 |
| 20260904150633 | 80 | 146 | 4.0 | 7.0 | 0.00 | 0.00 | 0.00 | 87 | 1015.8 |
| 20260904150156 | 80 | 143 | 3.0 | 7.0 | 0.00 | 0.00 | 0.00 | 88 | 1015.9 |
| 20260904145709 | 80 | 144 | 3.0 | 6.0 | 0.00 | 0.00 | 0.00 | 88 | 1015.9 |